Tracking 28096 objects as of 27-Sep-2023
HD Live streaming from Space Station
objects crossing your sky now

GLOBALSTAR M084

Track GLOBALSTAR M084 now!
10-day predictions
GLOBALSTAR M084 is classified as:


NORAD ID: 38040
Int'l Code: 2011-080A
Perigee: 1,420.0 km
Apogee: 1,421.5 km
Inclination: 52.0 °
Period: 114.1 minutes
Semi major axis: 7791 km
RCS: 4.8621 m2 (large)
Launch date: December 28, 2011
Source: Globalstar (GLOB)
Launch site: TYURATAM MISSILE AND SPACE COMPLEX (TTMTR)
Your satellite tracking list
Your tracking list is empty




NASA's NSSDC Master Catalog

Two Line Element Set (TLE):
1 38040U 11080A   23270.45365284 -.00000079  00000-0  14043-3 0  9998
2 38040  51.9996 162.5701 0000933  79.4334  90.6915 12.62266316543268
Source of the keplerian elements: AFSPC